Weather History for Szolnok, Hungary

Change the Weather History Date:

Friday, November 16, 2012

  Actual Average (LHBP) Record (LHBP)
Temperature  
Mean Temperature 38 °F -  
Max Temperature 46 °F 46 °F 68 °F (2002)
Min Temperature 30 °F 33 °F 17 °F (2011)
Degree Days  
Heating Degree Days 27    
Moisture  
Dew Point 36 °F    
Average Humidity 93    
Maximum Humidity 100    
Minimum Humidity 81    
Precipitation  
Precipitation 0.00 in - - ()
Sea Level Pressure  
Sea Level Pressure 30.27 in    
Wind  
Wind Speed 2 mph ()    
Max Wind Speed 7 mph    
Max Gust Speed -    
Visibility 1.5 miles    
Events Fog    
Averages and records for this station are not official NWS values.
T = Trace of Precipitation, MM = Missing Value Source: Averaged Metar Reports

Daily Weather History Graph

Daily Weather History Graph

Search for Another Location

Airport:

Trip Planner

Search our weather history database for the weather conditions in past years. The results will help you decide how hot, cold, wet, or windy it might be!

Date:

Astronomy

Nov. 16, 2012 Rise Set
Actual Time 6:44 AM CET 4:02 PM CET
Civil Twilight 6:11 AM CET 4:36 PM CET
Nautical Twilight 5:33 AM CET 5:13 PM CET
Astronomical Twilight 4:57 AM CET 5:49 PM CET
Moon 9:26 AM CET (11/16) 6:37 PM CET (11/16)
Length of Visible Light 10h 24m
Length of Day
9h 18m
Waxing Crescent, 9% of the Moon is Illuminated
Nov 16
Waxing Crescent
Nov 20
First Quarter
Nov 28
Full
Dec 6
Last Quarter
Dec 13
New

Hourly Weather History & Observations

Time (CET) Temp. Windchill Dew Point Humidity Pressure Visibility Wind Dir Wind Speed Gust Speed Precip Events Conditions
12:15 AM 33.8 °F - 33.8 °F 100% 30.27 in 0.5 mi Calm Calm - N/A Fog Fog
12:45 AM 33.8 °F - 33.8 °F 100% 30.27 in 0.3 mi North 2.2 mph - N/A Fog Fog
1:15 AM 35.6 °F - 33.8 °F 93% 30.27 in 0.3 mi Calm Calm - N/A Fog Fog
1:45 AM 35.6 °F - 35.6 °F 100% 30.27 in 0.5 mi Calm Calm - N/A Fog Fog
2:15 AM 37.4 °F - 35.6 °F 93% 30.27 in 0.5 mi Calm Calm - N/A Fog Fog
2:41 AM 37.4 °F - 37.4 °F 100% 30.27 in 0.9 mi Calm Calm - N/A   Mostly Cloudy
2:45 AM 37.4 °F - 37.4 °F 100% 30.27 in 0.9 mi Calm Calm - N/A   Mostly Cloudy
3:15 AM 37.4 °F - 35.6 °F 93% 30.27 in 0.9 mi Calm Calm - N/A   Mostly Cloudy
3:45 AM 35.6 °F - 35.6 °F 100% 30.27 in 0.9 mi Calm Calm - N/A   Mostly Cloudy
4:15 AM 33.8 °F - 33.8 °F 100% 30.27 in 0.9 mi Calm Calm - N/A   Overcast
4:45 AM 35.6 °F - 33.8 °F 93% 30.27 in 0.9 mi NE 2.2 mph - N/A   Overcast
5:15 AM 33.8 °F - 33.8 °F 100% 30.27 in 0.9 mi North 2.2 mph - N/A   Mostly Cloudy
5:45 AM - - - N/A% - 0.9 mi NNE 4.5 mph - N/A   Mostly Cloudy
6:15 AM 33.8 °F - 33.8 °F 100% 30.27 in 0.7 mi Calm Calm - N/A   Mostly Cloudy
6:45 AM 33.8 °F - 33.8 °F 100% 30.30 in 0.7 mi Calm Calm - N/A   Mostly Cloudy
7:02 AM 33.8 °F - 33.8 °F 100% 30.30 in 0.9 mi Calm Calm - N/A   Mostly Cloudy
7:15 AM 35.6 °F - 33.8 °F 93% 30.30 in 0.9 mi Calm Calm - N/A   Scattered Clouds
7:45 AM 35.6 °F - 35.6 °F 100% 30.30 in 1.2 mi Calm Calm - N/A   Partly Cloudy
8:15 AM 37.4 °F - 37.4 °F 100% 30.30 in 1.6 mi NNE 2.2 mph - N/A   Partly Cloudy
8:45 AM - - - N/A% - 1.9 mi NNE 4.5 mph - N/A Fog Fog
9:15 AM 41.0 °F - 37.4 °F 87% 30.30 in 1.9 mi ENE 2.2 mph - N/A   Partly Cloudy
9:45 AM 41.0 °F 38.1 °F 39.2 °F 93% 30.30 in 1.9 mi ENE 4.5 mph - N/A   Partly Cloudy
10:15 AM 42.8 °F 40.2 °F 39.2 °F 87% 30.30 in 2.5 mi ENE 4.5 mph - N/A   Partly Cloudy
10:45 AM 42.8 °F 40.2 °F 39.2 °F 87% 30.30 in 3.1 mi ENE 4.5 mph - N/A   Partly Cloudy
11:04 AM 42.8 °F 38.7 °F 39.2 °F 87% 30.30 in 1.9 mi ENE 6.7 mph - N/A   Partly Cloudy
11:08 AM 41.0 °F 36.5 °F 37.4 °F 87% 30.30 in 0.9 mi ENE 6.7 mph - N/A   Scattered Clouds
11:15 AM 41.0 °F 36.5 °F 37.4 °F 87% 30.30 in 0.5 mi East 6.7 mph - N/A Fog Fog
11:45 AM - - - N/A% - 1.9 mi NNE 4.5 mph - N/A Fog Fog
12:15 PM 39.2 °F 36.0 °F 37.4 °F 93% 30.30 in 0.5 mi East 4.5 mph - N/A Fog Fog
12:23 PM 39.2 °F 36.0 °F 37.4 °F 93% 30.30 in 0.6 mi ENE 4.5 mph - N/A   Scattered Clouds
12:34 PM 41.0 °F 38.1 °F 39.2 °F 93% 30.30 in 0.9 mi East 4.5 mph - N/A   Partly Cloudy
12:45 PM 42.8 °F 40.2 °F 39.2 °F 87% 30.27 in 1.9 mi East 4.5 mph - N/A   Partly Cloudy
1:00 PM - - - N/A% - 1.9 mi ENE 4.5 mph - N/A   Mostly Cloudy
1:15 PM 44.6 °F 42.3 °F 39.2 °F 81% 30.27 in 3.1 mi ENE 4.5 mph - N/A   Partly Cloudy
1:45 PM 46.4 °F 44.4 °F 41.0 °F 81% 30.27 in 3.1 mi ENE 4.5 mph - N/A   Partly Cloudy
2:15 PM 46.4 °F - 41.0 °F 81% 30.27 in 3.1 mi ENE 2.2 mph - N/A   Partly Cloudy
3:15 PM 46.4 °F 44.4 °F 41.0 °F 81% 30.27 in 3.7 mi ENE 4.5 mph - N/A   Unknown
3:45 PM 42.8 °F 40.2 °F 39.2 °F 87% 30.27 in 3.7 mi ENE 4.5 mph - N/A   Unknown
4:15 PM 41.0 °F 36.5 °F 39.2 °F 93% 30.24 in 3.7 mi NE 6.7 mph - N/A   Unknown
4:45 PM 41.0 °F 38.1 °F 39.2 °F 93% 30.24 in 3.7 mi NE 4.5 mph - N/A   Unknown
5:15 PM 41.0 °F 38.1 °F 39.2 °F 93% 30.24 in 3.7 mi NNE 4.5 mph - N/A   Unknown
5:45 PM - - - N/A% - 3.1 mi Variable 4.5 mph - N/A Fog Fog
6:15 PM 39.2 °F - 37.4 °F 93% 30.24 in 3.1 mi NNE 2.2 mph - N/A   Clear
6:45 PM 39.2 °F - 37.4 °F 93% 30.24 in 2.5 mi NNE 2.2 mph - N/A   Clear
7:15 PM 37.4 °F - 35.6 °F 93% 30.24 in 2.5 mi NNE 2.2 mph - N/A   Clear
7:45 PM 37.4 °F - 35.6 °F 93% 30.24 in 0.9 mi Calm Calm - N/A   Clear
8:15 PM 35.6 °F - 33.8 °F 93% 30.24 in 0.9 mi North 2.2 mph - N/A   Clear
8:45 PM - - - N/A% - 0.9 mi Variable 4.5 mph - N/A Fog Fog
9:15 PM 33.8 °F - 32.0 °F 93% 30.24 in 0.5 mi NW 2.2 mph - N/A Fog Fog
9:45 PM 33.8 °F - 32.0 °F 93% 30.24 in 0.3 mi NW 2.2 mph - N/A Fog Fog
10:00 PM - - - N/A% - 0.5 mi Variable 4.5 mph - N/A Fog Fog
10:15 PM 30.2 °F - 30.2 °F 100% 30.24 in 0.2 mi North 2.2 mph - N/A Fog Fog
10:45 PM 30.2 °F - 30.2 °F 100% 30.24 in 0.2 mi North 2.2 mph - N/A Fog Fog
11:00 PM - - - N/A% - 0.5 mi Variable 4.5 mph - N/A Fog Fog
11:15 PM 32.0 °F - 30.2 °F 93% 30.24 in 0.2 mi NNW 2.2 mph - N/A Fog Light Freezing Fog
11:45 PM - - - N/A% - 0.4 mi North - - N/A Fog Fog